This is the latest recevied weather packets stored in our database for station/object KM4KBD. If no packets are shown the sender has not sent any weather packets the latest 10 day(s).
| Time | Temp. | Humidity | Pressure | Rain* | Wind** | Luminosity | Snow |
|---|---|---|---|---|---|---|---|
| 1777936812 | 24.44° C | 48% | 1014.8 hPa | 0 mm | - | 76 W/m² | - |
| 1777936508 | 23.33° C | 49% | 1015.2 hPa | 0 mm | - | 70 W/m² | - |
| 1777936204 | 23.89° C | 50% | 1015.1 hPa | 0 mm | - | 48 W/m² | - |
| 1777935901 | 23.89° C | 49% | 1015.2 hPa | 0 mm | - | 54 W/m² | - |
| 1777935600 | 23.89° C | 48% | 1015.1 hPa | 0 mm | - | 76 W/m² | - |
| 1777935296 | 24.44° C | 45% | 1015.3 hPa | 0 mm | - | 81 W/m² | - |
| 1777934994 | 25° C | 45% | 1015.3 hPa | 0 mm | - | 144 W/m² | - |
| 1777934690 | 25° C | 45% | 1015.4 hPa | 0 mm | - | 135 W/m² | - |
| 1777934387 | 25° C | 45% | 1015.4 hPa | 0 mm | - | 175 W/m² | - |
| 1777934083 | 25° C | 45% | 1015.3 hPa | 0 mm | - | 156 W/m² | - |
| 1777933779 | 25° C | 43% | 1015 hPa | 0 mm | - | 188 W/m² | - |
| 1777933477 | 25° C | 44% | 1015.1 hPa | 0 mm | - | 203 W/m² | - |
| 1777933174 | 25° C | 43% | 1015.1 hPa | 0 mm | - | 213 W/m² | - |
| 1777932871 | 25° C | 45% | 1015.2 hPa | 0 mm | - | 206 W/m² | - |
| 1777932568 | 25° C | 43% | 1015.2 hPa | 0 mm | - | 219 W/m² | - |
| 1777932265 | 25° C | 46% | 1015.5 hPa | 0 mm | - | 133 W/m² | - |
| 1777931962 | 25° C | 44% | 1015.2 hPa | 0 mm | - | 170 W/m² | - |
| 1777931659 | 25° C | 44% | 1015.1 hPa | 0 mm | - | 252 W/m² | - |
| 1777931355 | 25° C | 46% | 1015.4 hPa | 0 mm | - | 237 W/m² | - |
| 1777931052 | 25° C | 46% | 1015.4 hPa | 0 mm | - | 258 W/m² | - |
| 1777930748 | 25° C | 45% | 1015.4 hPa | 0 mm | - | 287 W/m² | - |
| 1777930444 | 25° C | 45% | 1015.2 hPa | 0 mm | - | 335 W/m² | - |
| 1777930142 | 25° C | 45% | 1015.4 hPa | 0 mm | - | 341 W/m² | - |
| 1777929837 | 25° C | 45% | 1015.4 hPa | 0 mm | - | 333 W/m² | - |
| 1777929535 | 25° C | 45% | 1015.3 hPa | 0 mm | - | 331 W/m² | - |
* Rain latest hour (hover to see other rain measurements)
** Current wind speed in m/s (hover to see current wind gust speed)